Retour au catalogue

COSMOS 1579 COOLANT

LostLEO
NORAD 27910·DEBRIS·🇷🇺 Russia

Lancé Jun 29, 1984 depuis Baikonur Cosmodrome

Loading…

Prochains Passages (prochaines 24 heures)

TLE

PériméSource: Space-Track

Époque: Jul 10, 2020, 06:24 UTC

1 27910U 84069AC  20192.26731532 -.00000088  00000-0  00000+0 0  9995
2 27910  65.0488 150.0627 0067798  28.5846 331.8847 13.84177674891564

Suivez COSMOS 1579 COOLANT en temps réel avec AllMySat

Download on the App Store